{"data":{"norad_id":57242,"intl_designator":"2023-094AA","name":"STARLINK-6306","alt_names":[],"object_type":"PAYLOAD","status":"ACTIVE","operator":null,"country":"US","launch_date":"2023-07-07","launch_site_code":"AFWTR","launch_vehicle":null,"mission":null,"orbit_class":"UNKNOWN","rcs_meters":null,"size_class":null,"mass_kg":null,"dimensions":null,"purposes":["comms"],"wikipedia_slug":null,"has_3d_model":false,"image_url":null,"decayed_at":null,"tle_current":{"epoch":"2026-05-25T03:58:39.108288Z","epoch_age_seconds":61552,"freshness":"FRESH","line1":"1 57242U 23094AA  26145.16573042  .00001294  00000+0  56513-4 0  9993","line2":"2 57242  42.9992 308.2044 0000258 249.2583 110.8241 15.27581177158933","mean_motion":15.27581177,"eccentricity":2.58e-5,"inclination_deg":42.9992,"raan_deg":308.2044,"arg_perigee_deg":249.2583,"mean_anomaly_deg":110.8241,"bstar":5.6513e-5,"rev_number":15893,"period_min":94.266676081202,"perigee_km":482.86855317014,"apogee_km":483.22259019084,"semimajor_km":6861.1825716805,"source":"CELESTRAK","updated_at":"2026-05-25T13:38:18.257006Z"}}}